Flag for U.S.A. Weather past 2 weeks in San Jose, California, U.S.A.

Now
68 °F

Mostly cloudy.


Feels Like: 68 °F
Forecast: 61 / 78 °F
Wind: No wind

Location: San Jose International Airport

Current Time: Jul 22, 2014 at 11:07:41 AM

Latest Report: Jul 22, 2014 at 9:53 AM


Visibility: 10 mi

Pressure: 30.08 "Hg

Humidity: 69%

Dew point: 57 °F

Location of San JoseLocation

Historic Weather in San Jose — Graph

°F

San Jose temperature yesterday

Maximum temperature yesterday: 78 °F (at 12:53 PM)
Minimum temperature yesterday: 63 °F (at 11:53 PM)
Average temperature yesterday: 69 °F

Past Weeks' High & Low Weather Summary

 TemperatureHumidityPressure
High85 °F (Jul 14, 12:53 PM)90% (Jul 15, 2:53 AM)30.09 "Hg (Jul 15, 2:53 AM)
Low57 °F (Jul 9, 5:53 AM)41% (Jul 14, 3:53 PM)29.83 "Hg (Jul 7, 6:53 PM)
Average68 °F69%29.95 "Hg
* Reported Jul 7 8:53 AM — Jul 22 8:53 AM, San Jose, Weather by CustomWeather, © 2014

Note: Actual official high and low records may vary slightly from our data, if they occured in-between our weather recording intervals... More about our weather records

Advertising

San Jose weather history for previous 24 hours

 ConditionsComfort  
Time TempWeatherWind HumidityBarometerVisibility
8:53 AM
Jul 22
65 °FMostly cloudy.6 mph76%30.07 "Hg10 mi
7:53 AM64 °FMostly cloudy.5 mph78%30.07 "Hg10 mi
6:53 AM63 °FLight rain. Mostly cloudy.6 mph81%30.05 "Hg10 mi
5:53 AM63 °FMostly cloudy.6 mph78%30.04 "Hg10 mi
4:53 AM63 °FOvercast.5 mph78%30.03 "Hg10 mi
3:53 AM63 °FOvercast.No wind81%30.03 "Hg10 mi
2:53 AM63 °FPassing clouds.5 mph81%30.03 "Hg10 mi
1:53 AM63 °FOvercast.5 mph78%30.04 "Hg10 mi
12:53 AM62 °FClear.3 mph78%30.03 "Hg10 mi
11:53 PM
Jul 21
63 °FPassing clouds.3 mph78%30.04 "Hg10 mi
10:53 PM64 °FClear.8 mph75%30.04 "Hg10 mi
9:53 PM65 °FClear.10 mph76%30.03 "Hg10 mi
8:53 PM67 °FPassing clouds.12 mph71%30.01 "Hg10 mi
7:53 PM70 °FPassing clouds.14 mph64%30.00 "Hg10 mi
6:53 PM73 °FPassing clouds.15 mph59%30.00 "Hg10 mi
5:53 PM74 °FPassing clouds.15 mph60%30.00 "Hg10 mi
4:53 PM76 °FPassing clouds.14 mph58%30.00 "Hg10 mi
3:53 PM76 °FPassing clouds.16 mph56%30.01 "Hg10 mi
2:53 PM77 °FPassing clouds.16 mph54%30.02 "Hg10 mi
1:53 PM77 °FPassing clouds.16 mph54%30.03 "Hg10 mi
12:53 PM78 °FPassing clouds.7 mph48%30.02 "Hg10 mi
11:53 AM76 °FScattered clouds.6 mph50%30.03 "Hg10 mi
Weather by CustomWeather, © 2014

See weather overviewHow to use our weather pages